KQ4PPF Weather Reports


Display with metric or nautical units.
time (UTC)temp
F
wind
direction
speed
MPH
gust
MPH
rain 1hr
in
rain 24hr
in
rain mn
in
humidity
%
barometer
mb
20260504025507 51 302 0.0 0.0 0.00 0.00 0.00 79 1017.2
20260504025004 51 302 0.0 0.0 0.00 0.00 0.00 79 1016.9
20260504024501 52 302 0.0 0.0 0.00 0.00 0.00 78 1017.1
20260504023959 52 302 0.0 0.0 0.00 0.00 0.00 78 1016.8
20260504023455 52 302 0.0 0.0 0.00 0.00 0.00 78 1016.9
20260504022950 52 302 0.0 0.0 0.00 0.00 0.00 78 1016.7
20260504022446 53 302 0.0 0.0 0.00 0.00 0.00 77 1017.0
20260504021943 53 302 0.0 0.0 0.00 0.00 0.00 77 1016.7
20260504021441 53 302 0.0 0.0 0.00 0.00 0.00 77 1016.9
20260504020938 53 302 0.0 0.0 0.00 0.00 0.00 76 1016.9
20260504020434 53 302 0.0 0.0 0.00 0.00 0.00 76 1016.7
20260504015931 54 302 0.0 0.0 0.00 0.00 0.00 76 1016.7
20260504015427 54 302 0.0 0.0 0.00 0.00 0.00 76 1016.7
20260504014923 54 302 0.0 0.0 0.00 0.00 0.00 76 1016.7
20260504014419 54 302 0.0 0.0 0.00 0.00 0.00 74 1016.8
20260504013916 55 302 0.0 0.0 0.00 0.00 0.00 74 1016.9
20260504013415 55 302 0.0 0.0 0.00 0.00 0.00 73 1016.6
20260504012910 55 302 0.0 0.0 0.00 0.00 0.00 72 1016.7
20260504012409 55 302 0.0 0.0 0.00 0.00 0.00 72 1016.6
20260504011905 56 302 0.0 0.0 0.00 0.00 0.00 70 1016.4
20260504011403 56 302 0.0 0.0 0.00 0.00 0.00 70 1016.2
20260504010858 56 302 0.0 0.0 0.00 0.00 0.00 69 1016.4
20260504010354 56 302 0.0 0.0 0.00 0.00 0.00 68 1016.0
20260504005851 57 302 0.0 0.0 0.00 0.00 0.00 68 1016.2
20260504005348 57 302 0.0 0.0 0.00 0.00 0.00 67 1016.1
20260504004845 57 302 0.0 0.0 0.00 0.00 0.00 65 1016.1
20260504004343 58 302 0.0 0.0 0.00 0.00 0.00 66 1016.2
20260504003839 58 302 0.0 0.0 0.00 0.00 0.00 66 1016.1
20260504003336 58 302 0.0 0.0 0.00 0.00 0.00 65 1016.2
20260504002833 59 302 0.0 0.0 0.00 0.00 0.00 64 1016.2
20260504002329 59 302 0.0 0.0 0.00 0.00 0.00 65 1016.0
20260504001827 59 302 0.0 0.0 0.00 0.00 0.00 62 1015.9
20260504001324 60 302 0.0 0.0 0.00 0.00 0.00 62 1016.1
20260504000821 60 302 0.0 0.0 0.00 0.00 0.00 62 1016.2
20260504000318 60 302 0.0 0.0 0.00 0.00 0.00 59 1016.2
20260503235816 61 302 0.0 0.0 0.00 0.00 0.00 59 1016.0
20260503235313 61 302 0.0 0.0 0.00 0.00 0.00 57 1016.2
20260503234811 62 302 0.0 0.0 0.00 0.00 0.00 56 1016.2
20260503234308 62 302 0.0 0.0 0.00 0.00 0.00 54 1016.0
20260503233806 62 302 0.0 0.0 0.00 0.00 0.00 52 1016.3
20260503233301 63 302 0.0 0.0 0.00 0.00 0.00 53 1016.1
20260503232758 63 302 0.0 0.0 0.00 0.00 0.00 52 1016.1
20260503232256 63 302 0.0 0.0 0.00 0.00 0.00 50 1016.3
20260503231754 64 297 0.0 0.0 0.00 0.00 0.00 52 1016.3
20260503231250 64 300 0.0 0.0 0.00 0.00 0.00 50 1016.3
20260503230746 65 300 0.0 0.0 0.00 0.00 0.00 49 1016.2
20260503230244 65 299 0.0 0.0 0.00 0.00 0.00 47 1016.3
20260503225741 65 303 0.0 0.0 0.00 0.00 0.00 47 1016.6
20260503225241 65 298 0.0 0.0 0.00 0.00 0.00 45 1016.4
20260503224738 66 301 0.0 0.0 0.00 0.00 0.00 45 1016.6
20260503224236 66 299 0.0 0.0 0.00 0.00 0.00 45 1016.6
20260503223733 66 298 0.0 0.0 0.00 0.00 0.00 41 1016.4
20260503223231 67 302 0.0 0.0 0.00 0.00 0.00 44 1016.4
20260503222727 67 296 0.0 0.0 0.00 0.00 0.00 42 1016.7
20260503222225 67 298 0.0 0.0 0.00 0.00 0.00 44 1016.6
20260503221723 67 296 0.0 0.0 0.00 0.00 0.00 42 1016.8
20260503221221 68 297 0.0 0.0 0.00 0.00 0.00 42 1016.6
20260503220717 68 303 0.0 0.0 0.00 0.00 0.00 43 1016.6
20260503220214 68 306 0.0 0.0 0.00 0.00 0.00 41 1016.4
20260503215705 67 297 0.0 0.0 0.00 0.00 0.00 42 1016.4
20260503215202 67 298 0.0 0.0 0.00 0.00 0.00 43 1016.6
20260503214700 67 299 0.0 0.0 0.00 0.00 0.00 43 1016.6
20260503214155 67 298 0.0 0.0 0.00 0.00 0.00 42 1016.8
20260503213649 67 304 0.0 0.0 0.00 0.00 0.00 41 1017.0
20260503213145 67 319 0.0 1.0 0.00 0.00 0.00 41 1017.1
20260503212643 67 300 0.0 0.0 0.00 0.00 0.00 42 1017.1
20260503212140 67 304 0.0 0.0 0.00 0.00 0.00 43 1017.1
20260503211638 67 297 0.0 0.0 0.00 0.00 0.00 45 1017.3
20260503211133 67 297 0.0 0.0 0.00 0.00 0.00 42 1017.2
20260503210630 67 298 0.0 0.0 0.00 0.00 0.00 39 1017.2
20260503210126 67 297 0.0 0.0 0.00 0.00 0.00 38 1017.3
20260503205622 67 315 0.0 0.0 0.00 0.00 0.00 38 1017.3
20260503205118 67 294 0.0 0.0 0.00 0.00 0.00 38 1017.5
20260503204615 67 297 0.0 0.0 0.00 0.00 0.00 41 1017.5
20260503204113 66 305 0.0 0.0 0.00 0.00 0.00 40 1017.3
20260503203610 66 293 0.0 0.0 0.00 0.00 0.00 39 1017.7
20260503203108 66 296 0.0 0.0 0.00 0.00 0.00 42 1017.8
20260503202605 66 298 0.0 0.0 0.00 0.00 0.00 40 1017.7
20260503202103 66 296 0.0 0.0 0.00 0.00 0.00 40 1017.5
20260503201601 66 297 0.0 0.0 0.00 0.00 0.00 43 1017.7
20260503201058 66 298 0.0 0.0 0.00 0.00 0.00 42 1018.1
20260503200554 66 290 2.0 2.0 0.00 0.00 0.00 41 1018.2
20260503200050 66 299 0.0 0.0 0.00 0.00 0.00 43 1018.2
20260503195547 65 339 1.0 1.0 0.00 0.00 0.00 42 1018.5
20260503195044 65 299 0.0 0.0 0.00 0.00 0.00 46 1018.5
20260503194541 65 338 0.0 1.0 0.00 0.00 0.00 44 1018.4
20260503194041 65 295 0.0 0.0 0.00 0.00 0.00 44 1018.7
20260503193538 65 4 1.0 3.0 0.00 0.00 0.00 43 1018.9
20260503193034 65 299 0.0 0.0 0.00 0.00 0.00 44 1018.9
20260503192530 65 324 0.0 0.0 0.00 0.00 0.00 47 1018.9
20260503192026 65 299 0.0 0.0 0.00 0.00 0.00 44 1019.3
20260503191523 64 274 0.0 0.0 0.00 0.00 0.00 43 1019.2
20260503191020 65 26 1.0 2.0 0.00 0.00 0.00 44 1019.2
20260503190517 65 299 0.0 0.0 0.00 0.00 0.00 46 1019.2
20260503190014 64 297 0.0 0.0 0.00 0.00 0.00 44 1019.2
20260503185510 64 296 0.0 0.0 0.00 0.00 0.00 43 1019.3
20260503185010 65 298 0.0 0.0 0.00 0.00 0.00 45 1019.4
20260503184506 65 296 0.0 0.0 0.00 0.00 0.00 44 1019.3
20260503184003 65 300 0.0 0.0 0.00 0.00 0.00 45 1019.5
20260503183459 64 298 0.0 0.0 0.00 0.00 0.00 46 1019.4
20260503182956 65 305 0.0 0.0 0.00 0.00 0.00 43 1019.5
20260503182455 65 297 0.0 0.0 0.00 0.00 0.00 44 1019.7
20260503181952 65 303 0.0 0.0 0.00 0.00 0.00 44 1019.8
20260503181449 65 307 0.0 0.0 0.00 0.00 0.00 42 1019.6
20260503180945 65 300 0.0 0.0 0.00 0.00 0.00 43 1019.8
20260503180444 65 302 0.0 0.0 0.00 0.00 0.00 41 1019.6
20260503175940 64 312 0.0 0.0 0.00 0.00 0.00 42 1020.0
20260503175438 64 312 0.0 0.0 0.00 0.00 0.00 41 1020.1
20260503174933 64 341 0.0 0.0 0.00 0.00 0.00 44 1020.3
20260503174432 64 303 0.0 0.0 0.00 0.00 0.00 39 1020.3
20260503173932 64 300 0.0 0.0 0.00 0.00 0.00 44 1020.3
20260503173428 64 302 0.0 0.0 0.00 0.00 0.00 40 1020.5
20260503172925 64 301 0.0 0.0 0.00 0.00 0.00 41 1020.7
20260503172422 63 313 0.0 0.0 0.00 0.00 0.00 46 1020.5
20260503171918 64 300 0.0 0.0 0.00 0.00 0.00 44 1020.6
20260503171415 64 302 0.0 0.0 0.00 0.00 0.00 47 1020.3
20260503170913 63 299 0.0 0.0 0.00 0.00 0.00 47 1020.7
20260503170409 62 301 0.0 0.0 0.00 0.00 0.00 47 1020.8
20260503150801 60 314 0.0 0.0 0.00 0.00 0.00 52 1022.1
20260503150257 60 318 0.0 0.0 0.00 0.00 0.00 48 1021.9
20260503140222 55 306 0.0 0.0 0.00 0.00 0.00 68 1021.7
20260503131151 51 306 0.0 0.0 0.00 0.00 0.00 79 1021.7
20260503130649 50 304 0.0 0.0 0.00 0.00 0.00 81 1021.8
20260503130146 50 307 0.0 0.0 0.00 0.00 0.00 83 1021.4
20260503120106 48 309 0.0 0.0 0.00 0.00 0.00 89 1021.6
20260503110534 40 303 0.0 0.0 0.00 0.00 0.00 99 1021.0
20260503090420 41 303 0.0 0.0 0.00 0.00 0.00 98 1019.6
20260503081346 42 303 0.0 0.0 0.00 0.00 0.00 97 1019.1
20260503080843 42 303 0.0 0.0 0.00 0.00 0.00 97 1019.0
20260503080340 42 303 0.0 0.0 0.00 0.00 0.00 97 1019.0
20260503072817 43 303 0.0 0.0 0.00 0.00 0.00 96 1018.8
20260503072314 43 304 0.0 0.0 0.00 0.00 0.00 96 1018.7
20260503071810 43 304 0.0 0.0 0.00 0.00 0.00 96 1018.8
20260503071307 44 304 0.0 0.0 0.00 0.00 0.00 96 1018.7
20260503070803 44 303 0.0 0.0 0.00 0.00 0.00 95 1018.5
20260503070301 44 303 0.0 0.0 0.00 0.00 0.00 95 1018.5
20260503060226 46 304 0.0 0.0 0.00 0.00 0.00 89 1018.6
20260503054713 46 303 0.0 0.0 0.00 0.00 0.00 87 1018.5
20260503054211 47 303 0.0 0.0 0.00 0.00 0.00 87 1018.5
20260503053709 47 302 0.0 0.0 0.00 0.00 0.00 87 1018.4
20260503053207 47 302 0.0 0.0 0.00 0.00 0.00 86 1018.2
20260503052703 47 302 0.0 0.0 0.00 0.00 0.00 85 1018.4
20260503052159 47 302 0.0 0.0 0.00 0.00 0.00 85 1018.6
20260503051654 47 302 0.0 0.0 0.00 0.00 0.00 85 1018.2
20260503051153 47 302 0.0 0.0 0.00 0.00 0.00 85 1018.2
20260503050649 47 303 0.0 0.0 0.00 0.00 0.00 84 1018.2
20260503050145 48 303 0.0 0.0 0.00 0.00 0.00 84 1018.0
20260503045643 48 303 0.0 0.0 0.00 0.00 0.00 83 1017.9
20260503045140 48 303 0.0 0.0 0.00 0.00 0.00 83 1018.2
20260503044637 48 303 0.0 0.0 0.00 0.00 0.00 82 1017.9
20260503044134 49 303 0.0 0.0 0.00 0.00 0.00 81 1018.0
20260503043631 49 303 0.0 0.0 0.00 0.00 0.00 80 1017.7
20260503043128 49 303 0.0 0.0 0.00 0.00 0.00 80 1018.0
20260503042624 49 302 0.0 0.0 0.00 0.00 0.00 80 1017.6
20260503042120 49 302 0.0 0.0 0.00 0.00 0.00 79 1017.8
20260503041617 49 303 0.0 0.0 0.00 0.00 0.00 79 1017.8
20260503041115 50 303 0.0 0.0 0.00 0.00 0.00 78 1017.8
20260503040612 50 303 0.0 0.0 0.00 0.00 0.00 78 1017.7
20260503040109 50 303 0.0 0.0 0.00 0.00 0.00 77 1017.7
20260503035606 50 303 0.0 0.0 0.00 0.00 0.00 77 1017.6
20260503035104 51 303 0.0 0.0 0.00 0.00 0.00 75 1017.6
20260503034600 51 303 0.0 0.0 0.00 0.00 0.00 72 1017.6
20260503034058 52 303 0.0 0.0 0.00 0.00 0.00 71 1017.4
20260503033555 52 303 0.0 0.0 0.00 0.00 0.00 70 1017.4
20260503033053 53 303 0.0 0.0 0.00 0.00 0.00 70 1017.7
20260503032551 53 303 0.0 0.0 0.00 0.00 0.00 68 1017.7
20260503032049 53 306 0.0 0.0 0.00 0.00 0.00 67 1017.4
20260503031546 54 307 0.0 0.0 0.00 0.00 0.00 66 1017.4
20260503031043 54 301 0.0 0.0 0.00 0.00 0.00 66 1017.6
20260503030539 54 303 0.0 0.0 0.00 0.00 0.00 65 1017.7
20260503030037 55 302 0.0 0.0 0.00 0.00 0.00 64 1017.9